Regional Weather Roundup
Issued by NWS Goodland, KS

Home | Current Version | Previous Version | Graphics & Text | Print | Product List | Glossary On
Versions: 1 2 3 4 5 6 7 8 9 10 11 12 13 14 15 16 17 18 19 20 21 22 23 24 25 26 27 28 29 30 31 32 33 34 35 36 37 38 39 40 41 42 43 44 45 46 47 48 49 50
000
ASUS43 KGLD 221459
RWRGLD

GOODLAND FORECAST AREA HOURLY WEATHER ROUNDUP
NATIONAL WEATHER SERVICE GOODLAND KS
900 AM MDT FRI SEP 22 2017

...OFFICIAL OBSERVATIONS...

CITY           SKY/WX    TMP DP  RH WIND       PRES   REMARKS
GOODLAND KS    CLOUDY    73  53  49 S17G28    29.80R
HILL CITY KS   SUNNY     83  63  50 S25G35    29.80R
IMPERIAL NEB   SUNNY     71  44  37 S15       29.76R
MCCOOK NEB     LGT RAIN  81  60  48 S28G36    29.74S
AKRON CO       SUNNY     59  38  45 NE7       29.81R
BURLINGTON CO  CLOUDY    72  46  39 S17       29.83R
LIMON CO       CLOUDY    68  32  26 S6        29.86R
$$

...UNOFFICIAL OBSERVATIONS...

CITY           SKY/WX    TMP DP  RH WIND       PRES   REMARKS
LENORA KS        N/A     81  32  17 MISG        N/A
NORTON KS      SUNNY     82  55  39 S22G30    29.77R
SHARON SPRINGS   N/A     74  57  55 S21G35      N/A
KIT CARSON CO    N/A     64  45  50 CALM        N/A
YUMA CO        FAIR      59  39  47 N5        29.81R
$$




USA.gov is the U.S. government's official web portal to all federal, state and local government web resources and services.